Regional Weather Roundup
Issued by NWS

Home | Current Version | Previous Version | Graphics & Text | Print | Product List | Glossary On
Versions: 1 2 3 4 5 6 7 8 9 10 11 12 13 14 15 16 17 18 19 20 21 22 23 24 25 26 27 28 29 30 31 32 33 34 35 36 37 38 39 40 41 42 43 44 45 46 47 48 49 50
000
ASUS43 KFSD 250810
RWRSD

WEATHER ROUNDUP FOR SOUTH DAKOTA
NATIONAL WEATHER SERVICE SIOUX FALLS SD
300 AM CDT WED MAY 25 2016

NOTE: "FAIR" INDICATES FEW OR NO CLOUDS BELOW 12,000 FEET WITH NO
SIGNIFICANT WEATHER AND/OR OBSTRUCTIONS TO VISIBILITY.


SDZ001>005-009-010-012>017-250900-
NORTHWEST AND NORTH CENTRAL SOUTH DAKOTA

CITY           SKY/WX    TMP DP  RH WIND       PRES   REMARKS
BUFFALO          N/A     54  47  77 SE16      29.72F
FAITH            N/A     53  49  86 W10       29.87R
MOBRIDGE       LGT RAIN  62  52  69 S9        29.79F
$$

SDZ012>016-024>037-041>051-057-063-072>074-250900-
SOUTHWEST AND SOUTH CENTRAL SOUTH DAKOTA

CITY           SKY/WX    TMP DP  RH WIND       PRES   REMARKS
RAPID CTY ARPT CLOUDY    51  47  86 CALM      29.85R
PIERRE         CLOUDY    57  54  89 N16       29.72F
CUSTER         CLOUDY    45  41  86 CALM      29.91S
PHILIP         CLOUDY    54  50  86 CALM      29.82R
PINE RIDGE     CLOUDY    51  47  86 E7        29.84F
WINNER         FAIR      59  55  87 NE20G28   29.75R
$$

SDZ004>011-016>023-039-040-250900-
NORTHEAST SOUTH DAKOTA

CITY           SKY/WX    TMP DP  RH WIND       PRES   REMARKS
ABERDEEN       CLOUDY    65  53  65 SW14      29.81R
WATERTOWN      CLOUDY    67  56  67 SE7       29.82F
BROOKINGS      CLOUDY    66  61  84 SE10      29.82F
SISSETON         N/A     60  53  77 CALM      29.82F
$$

SDZ017-020-022-023-036>040-048>070-250900-
SOUTHEAST SOUTH DAKOTA

CITY           SKY/WX    TMP DP  RH WIND       PRES   REMARKS
SIOUX FALLS    CLOUDY    68  62  81 SE10      29.80F
HURON          CLOUDY    67  62  84 NW10      29.77R
CHAMBERLAIN    RAIN      60  59  99 NW14G24   29.78F
MITCHELL       CLOUDY    69  61  75 SE13      29.74F
YANKTON        CLOUDY    68  59  73 SE10      29.75F
$$

ABBREVIATIONS USED IN REMARKS
   TC - TEMPERATURE IN CELSIUS
  WCI - WIND CHILL INDEX
   HX - HEAT INDEX
  VSB - VISIBILITY





USA.gov is the U.S. government's official web portal to all federal, state and local government web resources and services.